Time,TemperatureF,DewpointF,PressureIn,WindDirection,WindDirectionDegrees,WindSpeedMPH,WindSpeedGustMPH,Humidity,HourlyPrecipIn,Conditions,Clouds,dailyrainin,SolarRadiationWatts/m^2,SoftwareType,DateUTC
2013-04-12 00:02:00,37.3,36.0,29.67,SW,231,0.0,2.0,95,0.00,-RA,-RA,0.00,0.0,WeatherDisplay:10.37,2013-04-12 05:02:00,
2013-04-12 00:07:00,37.4,36.1,29.66,WSW,237,0.0,2.0,95,0.00,-RA,-RA,0.00,0.0,WeatherDisplay:10.37,2013-04-12 05:07:00,
2013-04-12 00:12:00,37.4,36.1,29.67,SSW,199,2.0,4.0,95,0.00,-DZ,-DZ,0.00,0.0,WeatherDisplay:10.37,2013-04-12 05:12:00,
2013-04-12 00:17:00,37.3,36.0,29.67,SW,220,0.0,5.0,95,0.00,-DZ,-DZ,0.00,0.0,WeatherDisplay:10.37,2013-04-12 05:17:00,
2013-04-12 00:22:00,37.2,35.9,29.67,WSW,245,2.0,4.0,95,0.00,-DZ,-DZ,0.00,0.0,WeatherDisplay:10.37,2013-04-12 05:22:00,
2013-04-12 00:27:00,37.1,35.8,29.67,SW,230,0.1,2.3,95,0.01,-DZ,,0.00,0.0,WeatherDisplay:10.37,2013-04-12 05:27:00,
2013-04-12 00:32:00,37.1,35.5,29.67,WSW,249,0.2,1.2,94,0.00,-DZ,,0.00,0.0,WeatherDisplay:10.37,2013-04-12 05:32:00,
2013-04-12 00:38:00,37.1,35.5,29.67,WNW,285,2.0,2.0,94,0.00,-DZ,,0.00,0.0,WeatherDisplay:10.37,2013-04-12 05:38:00,
2013-04-12 00:43:00,37.1,35.5,29.67,SW,232,1.0,5.8,94,0.00,-DZ,,0.00,0.0,WeatherDisplay:10.37,2013-04-12 05:43:00,
2013-04-12 00:48:00,37.1,35.5,29.67,SSW,205,0.0,2.3,94,0.00,-DZ,,0.00,0.0,WeatherDisplay:10.37,2013-04-12 05:48:00,
2013-04-12 00:53:00,37.1,35.5,29.67,SW,219,1.3,2.3,94,0.00,-DZ,,0.00,0.0,WeatherDisplay:10.37,2013-04-12 05:53:00,
2013-04-12 00:59:00,37.1,35.3,29.67,WNW,300,0.0,2.3,93,0.00,-DZ,,0.00,0.0,WeatherDisplay:10.37,2013-04-12 05:59:00,
2013-04-12 01:04:00,37.1,35.3,29.67,WNW,288,0.5,4.0,93,0.00,-DZ,,0.00,0.0,WeatherDisplay:10.37,2013-04-12 06:04:00,
2013-04-12 01:09:00,37.0,35.2,29.67,SW,224,0.6,2.3,93,0.00,-DZ,,0.00,0.0,WeatherDisplay:10.37,2013-04-12 06:09:00,
2013-04-12 01:14:00,37.0,35.2,29.67,West,280,0.4,6.9,93,0.00,-DZ,,0.00,0.0,WeatherDisplay:10.37,2013-04-12 06:14:00,
2013-04-12 01:20:00,37.1,35.3,29.67,SSW,206,0.4,2.0,93,0.00,-DZ,,0.00,0.0,WeatherDisplay:10.37,2013-04-12 06:20:00,
2013-04-12 01:25:00,37.1,35.3,29.67,West,268,3.2,11.5,93,0.00,-DZ,,0.00,0.0,WeatherDisplay:10.37,2013-04-12 06:25:00,
2013-04-12 01:30:00,37.0,34.9,29.67,WSW,246,2.8,8.0,92,0.00,-DZ,,0.00,0.0,WeatherDisplay:10.37,2013-04-12 06:30:00,
2013-04-12 01:35:00,37.1,35.0,29.67,WSW,250,0.7,1.2,92,0.00,-DZ,,0.00,0.0,WeatherDisplay:10.37,2013-04-12 06:35:00,
2013-04-12 01:41:00,37.1,35.3,29.67,West,261,0.4,2.3,93,0.00,-DZ,,0.00,0.0,WeatherDisplay:10.37,2013-04-12 06:41:00,
2013-04-12 01:46:00,37.1,35.3,29.67,NW,318,0.5,2.0,93,0.00,-DZ,,0.00,0.0,WeatherDisplay:10.37,2013-04-12 06:46:00,
2013-04-12 01:52:00,37.0,35.2,29.67,SW,234,0.5,2.3,93,0.00,-DZ,,0.00,0.0,WeatherDisplay:10.37,2013-04-12 06:52:00,
2013-04-12 01:57:00,37.0,35.2,29.66,WSW,250,1.0,5.0,93,0.00,-DZ,-DZ,0.00,0.0,WeatherDisplay:10.37,2013-04-12 06:57:00,
2013-04-12 02:02:00,37.0,35.2,29.67,West,268,0.0,7.0,93,0.00,-DZ,-DZ,0.00,0.0,WeatherDisplay:10.37,2013-04-12 07:02:00,
2013-04-12 02:07:00,37.1,35.3,29.67,West,267,1.0,11.0,93,0.00,-DZ,-DZ,0.00,0.0,WeatherDisplay:10.37,2013-04-12 07:07:00,
2013-04-12 02:12:00,37.1,35.3,29.67,WSW,252,1.0,11.0,93,0.00,-DZ,-DZ,0.00,0.0,WeatherDisplay:10.37,2013-04-12 07:12:00,
2013-04-12 02:17:00,37.1,35.3,29.67,WSW,246,2.0,11.0,93,0.00,-DZ,-DZ,0.00,0.0,WeatherDisplay:10.37,2013-04-12 07:17:00,
2013-04-12 02:22:00,37.0,35.2,29.66,NW,304,0.8,3.0,93,0.00,-DZ,,0.00,0.0,WeatherDisplay:10.37,2013-04-12 07:22:00,
2013-04-12 02:27:00,37.0,35.2,29.67,WSW,254,0.0,11.0,93,0.00,-DZ,-DZ,0.00,0.0,WeatherDisplay:10.37,2013-04-12 07:27:00,
2013-04-12 02:32:00,37.0,35.2,29.66,WSW,249,0.0,11.0,93,0.00,-DZ,-DZ,0.00,0.0,WeatherDisplay:10.37,2013-04-12 07:32:00,
2013-04-12 02:37:00,36.9,35.4,29.67,SW,224,1.0,11.0,94,0.00,-DZ,-DZ,0.00,0.0,WeatherDisplay:10.37,2013-04-12 07:37:00,
2013-04-12 02:42:00,36.9,35.3,29.67,SW,229,2.0,11.0,94,0.00,-DZ,-DZ,0.00,0.0,WeatherDisplay:10.37,2013-04-12 07:42:00,
2013-04-12 02:47:00,36.9,35.3,29.67,WSW,254,0.0,11.0,94,0.00,-DZ,-DZ,0.00,0.0,WeatherDisplay:10.37,2013-04-12 07:47:00,
2013-04-12 02:52:00,36.9,35.3,29.67,West,272,1.0,11.0,94,0.00,-DZ,-DZ,0.00,0.0,WeatherDisplay:10.37,2013-04-12 07:52:00,
2013-04-12 02:57:00,36.9,35.3,29.67,WNW,303,1.8,5.0,94,0.00,-DZ,,0.00,0.0,WeatherDisplay:10.37,2013-04-12 07:57:00,
2013-04-12 03:02:00,36.8,35.2,29.67,West,266,1.0,5.0,94,0.00,-DZ,-DZ,0.00,0.0,WeatherDisplay:10.37,2013-04-12 08:02:00,
2013-04-12 03:07:00,36.8,35.2,29.67,West,273,1.0,11.0,94,0.00,-DZ,-DZ,0.00,0.0,WeatherDisplay:10.37,2013-04-12 08:07:00,
2013-04-12 03:12:00,36.8,35.2,29.67,West,280,0.0,11.0,94,0.00,-DZ,-DZ,0.00,0.0,WeatherDisplay:10.37,2013-04-12 08:12:00,
2013-04-12 03:17:00,36.9,35.3,29.67,West,276,2.0,12.0,94,0.00,-DZ,-DZ,0.00,0.0,WeatherDisplay:10.37,2013-04-12 08:17:00,
2013-04-12 03:22:00,36.8,35.2,29.68,WSW,258,3.0,12.0,94,0.00,-DZ,-DZ,0.00,0.0,WeatherDisplay:10.37,2013-04-12 08:22:00,
2013-04-12 03:27:00,36.8,35.2,29.68,West,263,1.0,8.0,94,0.00,-DZ,-DZ,0.00,0.0,WeatherDisplay:10.37,2013-04-12 08:27:00,
2013-04-12 03:32:00,36.8,35.2,29.68,West,271,1.0,4.0,94,0.00,-DZ,-DZ,0.00,0.0,WeatherDisplay:10.37,2013-04-12 08:32:00,
2013-04-12 03:37:00,36.8,35.2,29.68,West,271,1.0,10.0,94,0.00,-DZ,-DZ,0.00,0.0,WeatherDisplay:10.37,2013-04-12 08:37:00,
2013-04-12 03:42:00,36.8,35.2,29.68,West,269,1.9,9.2,94,0.00,-DZ,,0.00,0.0,WeatherDisplay:10.37,2013-04-12 08:42:00,
2013-04-12 03:47:00,36.9,35.3,29.68,West,266,3.0,9.0,94,0.00,-DZ,-DZ,0.00,0.0,WeatherDisplay:10.37,2013-04-12 08:47:00,
2013-04-12 03:52:00,36.9,35.3,29.68,West,271,1.3,8.1,94,0.00,-DZ,,0.00,0.0,WeatherDisplay:10.37,2013-04-12 08:52:00,
2013-04-12 03:57:00,36.8,35.0,29.68,West,269,2.0,9.0,93,0.00,-DZ,-DZ,0.00,0.0,WeatherDisplay:10.37,2013-04-12 08:57:00,
2013-04-12 04:02:00,36.8,35.0,29.69,West,261,7.0,17.0,93,0.00,-DZ,-DZ,0.00,0.0,WeatherDisplay:10.37,2013-04-12 09:02:00,
2013-04-12 04:07:00,36.8,35.0,29.69,West,261,5.0,12.0,93,0.00,-DZ,-DZ,0.00,0.0,WeatherDisplay:10.37,2013-04-12 09:07:00,
2013-04-12 04:12:00,36.8,35.0,29.69,West,273,3.0,17.0,93,0.00,-DZ,-DZ,0.00,0.0,WeatherDisplay:10.37,2013-04-12 09:12:00,
2013-04-12 04:17:00,36.8,34.9,29.69,West,277,5.0,15.0,93,0.00,-DZ,-DZ,0.00,0.0,WeatherDisplay:10.37,2013-04-12 09:17:00,
2013-04-12 04:22:00,36.7,34.9,29.69,West,273,3.0,17.0,93,0.00,-DZ,-DZ,0.00,0.0,WeatherDisplay:10.37,2013-04-12 09:22:00,
2013-04-12 04:27:00,36.6,34.8,29.69,West,270,3.0,17.0,93,0.00,-DZ,-DZ,0.00,0.0,WeatherDisplay:10.37,2013-04-12 09:27:00,
2013-04-12 04:32:00,36.6,34.8,29.69,West,271,5.0,17.0,93,0.00,-DZ,-DZ,0.00,0.0,WeatherDisplay:10.37,2013-04-12 09:32:00,
2013-04-12 04:37:00,36.6,34.5,29.69,West,274,7.0,13.0,92,0.00,-DZ,-DZ,0.00,0.0,WeatherDisplay:10.37,2013-04-12 09:37:00,
2013-04-12 04:42:00,36.6,34.5,29.69,West,270,8.0,17.0,92,0.00,-DZ,-DZ,0.00,0.0,WeatherDisplay:10.37,2013-04-12 09:42:00,
2013-04-12 04:47:00,36.6,34.5,29.69,West,272,3.0,17.0,92,0.00,-DZ,-DZ,0.00,0.0,WeatherDisplay:10.37,2013-04-12 09:47:00,
2013-04-12 04:52:00,36.5,34.4,29.69,West,264,7.0,17.0,92,0.00,-DZ,-DZ,0.00,0.0,WeatherDisplay:10.37,2013-04-12 09:52:00,
2013-04-12 04:57:00,36.5,34.4,29.70,West,275,2.0,17.0,92,0.00,-DZ,-DZ,0.00,0.0,WeatherDisplay:10.37,2013-04-12 09:57:00,
2013-04-12 05:02:00,36.5,34.4,29.70,West,280,3.0,7.0,92,0.00,-DZ,-DZ,0.00,0.0,WeatherDisplay:10.37,2013-04-12 10:02:00,
2013-04-12 05:07:00,36.5,34.4,29.70,WNW,289,6.0,17.0,92,0.00,-DZ,-DZ,0.00,0.0,WeatherDisplay:10.37,2013-04-12 10:07:00,
2013-04-12 05:12:00,36.5,34.4,29.70,WNW,286,1.0,17.0,92,0.00,-DZ,-DZ,0.00,0.0,WeatherDisplay:10.37,2013-04-12 10:12:00,
2013-04-12 05:17:00,36.4,34.3,29.70,WNW,292,4.4,9.0,92,0.00,-DZ,,0.00,0.0,WeatherDisplay:10.37,2013-04-12 10:17:00,
2013-04-12 05:22:00,36.4,34.3,29.70,WSW,246,4.4,9.2,92,0.00,-DZ,,0.00,0.0,WeatherDisplay:10.37,2013-04-12 10:22:00,
2013-04-12 05:27:00,36.4,34.3,29.70,SSW,213,3.1,4.0,92,0.00,-DZ,,0.00,0.0,WeatherDisplay:10.37,2013-04-12 10:27:00,
2013-04-12 05:33:00,36.3,34.2,29.70,West,269,5.6,11.5,92,0.00,-DZ,,0.00,0.0,WeatherDisplay:10.37,2013-04-12 10:33:00,
2013-04-12 05:38:00,36.3,34.2,29.71,West,261,3.0,3.5,92,0.00,-DZ,,0.00,0.0,WeatherDisplay:10.37,2013-04-12 10:38:00,
2013-04-12 05:43:00,36.3,34.2,29.71,WSW,242,2.5,6.0,92,0.00,-DZ,,0.00,0.0,WeatherDisplay:10.37,2013-04-12 10:43:00,
2013-04-12 05:48:00,36.2,34.1,29.71,SW,225,0.7,8.1,92,0.00,-DZ,,0.00,0.0,WeatherDisplay:10.37,2013-04-12 10:48:00,
2013-04-12 05:53:00,36.2,34.1,29.71,SW,234,5.0,9.0,92,0.00,-DZ,,0.00,0.0,WeatherDisplay:10.37,2013-04-12 10:53:00,
2013-04-12 05:58:00,36.2,34.1,29.71,WNW,288,1.6,6.9,92,0.00,-DZ,,0.00,0.0,WeatherDisplay:10.37,2013-04-12 10:58:00,
2013-04-12 06:04:00,36.2,34.1,29.71,West,278,6.2,17.0,92,0.00,-DZ,,0.00,0.0,WeatherDisplay:10.37,2013-04-12 11:04:00,
2013-04-12 06:09:00,36.2,33.8,29.72,WSW,252,5.7,12.7,91,0.00,-DZ,,0.00,0.0,WeatherDisplay:10.37,2013-04-12 11:09:00,
2013-04-12 06:14:00,36.1,33.7,29.71,WNW,289,7.1,13.8,91,0.00,-DZ,,0.00,0.0,WeatherDisplay:10.37,2013-04-12 11:14:00,
2013-04-12 06:19:00,36.1,33.5,29.71,West,269,2.6,11.5,90,0.00,-DZ,,0.00,0.0,WeatherDisplay:10.37,2013-04-12 11:19:00,
2013-04-12 06:25:00,36.1,33.5,29.72,West,268,6.9,15.0,90,0.00,-DZ,,0.00,0.0,WeatherDisplay:10.37,2013-04-12 11:25:00,
2013-04-12 06:30:00,36.1,33.5,29.72,West,263,3.8,11.5,90,0.00,-DZ,,0.00,0.0,WeatherDisplay:10.37,2013-04-12 11:30:00,
2013-04-12 06:35:00,36.1,33.5,29.73,West,265,5.3,9.0,90,0.00,-DZ,,0.00,0.0,WeatherDisplay:10.37,2013-04-12 11:35:00,
2013-04-12 06:40:00,36.1,33.5,29.73,West,261,7.8,17.0,90,0.00,-DZ,,0.00,0.0,WeatherDisplay:10.37,2013-04-12 11:40:00,
2013-04-12 06:46:00,36.1,33.5,29.73,West,263,2.4,5.8,90,0.00,-DZ,,0.00,0.0,WeatherDisplay:10.37,2013-04-12 11:46:00,
2013-04-12 06:51:00,36.0,33.1,29.73,West,277,7.5,11.5,89,0.00,-DZ,,0.00,7.0,WeatherDisplay:10.37,2013-04-12 11:51:00,
2013-04-12 06:56:00,36.0,33.1,29.73,WNW,283,6.8,11.5,89,0.00,-DZ,,0.00,12.6,WeatherDisplay:10.37,2013-04-12 11:56:00,
2013-04-12 07:01:00,36.0,33.1,29.74,West,273,7.0,7.0,89,0.00,-DZ,,0.00,16.8,WeatherDisplay:10.37,2013-04-12 12:01:00,
2013-04-12 07:07:00,36.0,33.1,29.74,WNW,284,7.0,17.0,89,0.00,-DZ,-DZ,0.00,26.6,WeatherDisplay:10.37,2013-04-12 12:07:00,
2013-04-12 07:12:00,35.9,33.0,29.74,West,266,1.3,4.0,89,0.00,-DZ,,0.00,26.6,WeatherDisplay:10.37,2013-04-12 12:12:00,
2013-04-12 07:17:00,35.8,32.9,29.75,West,263,5.0,17.0,89,0.00,-DZ,-DZ,0.00,32.2,WeatherDisplay:10.37,2013-04-12 12:17:00,
2013-04-12 07:22:00,35.8,32.6,29.75,West,265,5.0,17.0,88,0.00,-DZ,-DZ,0.00,35.0,WeatherDisplay:10.37,2013-04-12 12:22:00,
2013-04-12 07:27:00,35.8,32.6,29.75,West,270,8.0,17.0,88,0.00,-DZ,-DZ,0.00,35.0,WeatherDisplay:10.37,2013-04-12 12:27:00,
2013-04-12 07:32:00,35.7,32.5,29.75,West,263,6.0,17.0,88,0.00,-DZ,-DZ,0.00,36.4,WeatherDisplay:10.37,2013-04-12 12:32:00,
2013-04-12 07:37:00,35.7,32.5,29.75,West,263,3.0,8.0,88,0.00,-DZ,-DZ,0.00,81.2,WeatherDisplay:10.37,2013-04-12 12:37:00,
2013-04-12 07:42:00,35.8,32.9,29.76,West,264,8.0,17.0,89,0.00,-DZ,-DZ,0.00,84.0,WeatherDisplay:10.37,2013-04-12 12:42:00,
2013-04-12 07:47:00,35.9,33.0,29.76,SW,231,6.2,10.4,89,0.00,-DZ,,0.00,84.0,WeatherDisplay:10.37,2013-04-12 12:47:00,
2013-04-12 07:52:00,35.8,32.6,29.76,West,271,5.0,17.0,88,0.00,-DZ,-DZ,0.00,103.6,WeatherDisplay:10.37,2013-04-12 12:52:00,
2013-04-12 07:57:00,35.9,32.7,29.76,West,269,5.0,17.0,88,0.00,-DZ,-DZ,0.00,64.4,WeatherDisplay:10.37,2013-04-12 12:57:00,
2013-04-12 08:02:00,35.7,32.5,29.77,West,269,7.0,15.0,88,0.00,-DZ,-DZ,0.00,152.6,WeatherDisplay:10.37,2013-04-12 13:02:00,
2013-04-12 08:07:00,36.0,33.1,29.77,West,269,7.0,17.0,89,0.00,-DZ,-DZ,0.00,140.0,WeatherDisplay:10.37,2013-04-12 13:07:00,
2013-04-12 08:12:00,36.3,32.8,29.77,West,274,8.0,17.0,87,0.00,-DZ,-DZ,0.00,133.0,WeatherDisplay:10.37,2013-04-12 13:12:00,
2013-04-12 08:17:00,36.2,32.7,29.77,West,274,9.0,17.0,87,0.00,-DZ,-DZ,0.00,147.0,WeatherDisplay:10.37,2013-04-12 13:17:00,
2013-04-12 08:22:00,36.2,32.7,29.78,West,273,8.0,17.0,87,0.00,-DZ,-DZ,0.00,165.2,WeatherDisplay:10.37,2013-04-12 13:22:00,
2013-04-12 08:27:00,36.4,32.9,29.78,West,263,2.0,17.0,87,0.00,-DZ,-DZ,0.00,184.8,WeatherDisplay:10.37,2013-04-12 13:27:00,
2013-04-12 08:32:00,36.5,33.0,29.78,WSW,253,3.0,17.0,87,0.00,-DZ,-DZ,0.00,250.6,WeatherDisplay:10.37,2013-04-12 13:32:00,
2013-04-12 08:37:00,36.8,33.2,29.78,West,266,5.0,14.0,87,0.00,-DZ,-DZ,0.00,187.6,WeatherDisplay:10.37,2013-04-12 13:37:00,
2013-04-12 08:42:00,36.8,33.0,29.78,West,262,3.4,8.1,86,0.00,-DZ,,0.00,162.4,WeatherDisplay:10.37,2013-04-12 13:42:00,
2013-04-12 08:47:00,36.8,33.0,29.79,WSW,254,2.0,17.0,86,0.00,-DZ,-DZ,0.00,194.6,WeatherDisplay:10.37,2013-04-12 13:47:00,
2013-04-12 08:52:00,36.9,33.1,29.79,WSW,258,5.0,17.0,86,0.00,-DZ,-DZ,0.00,228.2,WeatherDisplay:10.37,2013-04-12 13:52:00,
2013-04-12 08:57:00,37.0,33.2,29.79,West,262,6.0,17.0,86,0.00,-DZ,-DZ,0.00,214.2,WeatherDisplay:10.37,2013-04-12 13:57:00,
2013-04-12 09:02:00,37.1,33.0,29.80,West,266,6.0,14.0,85,0.00,-DZ,-DZ,0.00,198.8,WeatherDisplay:10.37,2013-04-12 14:02:00,
2013-04-12 09:07:00,37.2,33.1,29.80,West,271,7.0,17.0,85,0.00,-DZ,-DZ,0.00,217.0,WeatherDisplay:10.37,2013-04-12 14:07:00,
2013-04-12 09:12:00,37.3,33.2,29.80,West,268,5.0,17.0,85,0.00,-DZ,-DZ,0.00,179.2,WeatherDisplay:10.37,2013-04-12 14:12:00,
2013-04-12 09:17:00,37.3,33.2,29.80,SW,232,3.3,12.7,85,0.00,-DZ,,0.00,113.4,WeatherDisplay:10.37,2013-04-12 14:17:00,
2013-04-12 09:22:00,37.1,33.3,29.81,West,264,3.0,17.0,86,0.00,-DZ,-DZ,0.00,126.0,WeatherDisplay:10.37,2013-04-12 14:22:00,
2013-04-12 09:27:00,37.1,33.3,29.81,West,265,5.1,11.5,86,0.00,-DZ,,0.00,120.4,WeatherDisplay:10.37,2013-04-12 14:27:00,
2013-04-12 09:32:00,37.2,33.7,29.81,WSW,252,4.7,8.0,87,0.00,-DZ,,0.00,117.6,WeatherDisplay:10.37,2013-04-12 14:32:00,
2013-04-12 09:37:00,37.1,33.3,29.81,West,262,3.3,4.0,86,0.00,-DZ,,0.00,110.6,WeatherDisplay:10.37,2013-04-12 14:37:00,
2013-04-12 09:43:00,37.2,33.7,29.82,SW,223,2.5,2.5,87,0.00,-DZ,,0.00,81.2,WeatherDisplay:10.37,2013-04-12 14:43:00,
2013-04-12 09:48:00,37.2,33.7,29.82,NW,307,4.5,9.2,87,0.00,-DZ,,0.00,137.2,WeatherDisplay:10.37,2013-04-12 14:48:00,
2013-04-12 09:53:00,37.2,33.7,29.82,West,273,6.1,10.4,87,0.00,-DZ,,0.00,142.8,WeatherDisplay:10.37,2013-04-12 14:53:00,
2013-04-12 09:58:00,37.3,33.8,29.82,WSW,252,4.4,7.0,87,0.00,-DZ,,0.00,155.4,WeatherDisplay:10.37,2013-04-12 14:58:00,
2013-04-12 10:04:00,37.1,33.3,29.82,WSW,256,5.9,18.4,86,0.00,-DZ,,0.00,158.2,WeatherDisplay:10.37,2013-04-12 15:04:00,
2013-04-12 10:09:00,37.0,33.2,29.82,WSW,244,2.1,5.8,86,0.00,-DZ,,0.00,135.8,WeatherDisplay:10.37,2013-04-12 15:09:00,
2013-04-12 10:14:00,37.0,33.2,29.83,WNW,287,3.2,12.0,86,0.00,-DZ,,0.00,133.0,WeatherDisplay:10.37,2013-04-12 15:14:00,
2013-04-12 10:19:00,36.9,33.1,29.83,West,271,3.4,5.8,86,0.00,-DZ,,0.00,130.2,WeatherDisplay:10.37,2013-04-12 15:19:00,
2013-04-12 10:25:00,36.8,33.0,29.83,West,275,5.0,19.6,86,0.00,-DZ,,0.00,165.2,WeatherDisplay:10.37,2013-04-12 15:25:00,
2013-04-12 10:30:00,36.9,33.1,29.83,West,275,6.4,12.0,86,0.00,-DZ,,0.00,159.6,WeatherDisplay:10.37,2013-04-12 15:30:00,
2013-04-12 10:35:00,36.9,32.8,29.83,West,261,5.0,8.0,85,0.00,-DZ,,0.00,147.0,WeatherDisplay:10.37,2013-04-12 15:35:00,
2013-04-12 10:40:00,37.0,32.9,29.83,West,266,7.3,13.8,85,0.00,-DZ,,0.00,149.8,WeatherDisplay:10.37,2013-04-12 15:40:00,
2013-04-12 10:46:00,37.1,32.7,29.84,WNW,301,6.7,20.0,84,0.00,-DZ,,0.00,187.6,WeatherDisplay:10.37,2013-04-12 15:46:00,
2013-04-12 10:51:00,37.2,32.8,29.84,West,270,5.3,20.0,84,0.00,-DZ,,0.00,165.2,WeatherDisplay:10.37,2013-04-12 15:51:00,
2013-04-12 10:56:00,37.5,33.4,29.85,WNW,292,4.1,8.0,85,0.00,-DZ,,0.00,228.2,WeatherDisplay:10.37,2013-04-12 15:56:00,
2013-04-12 11:01:00,37.9,33.5,29.85,NW,311,2.8,6.9,84,0.00,-DZ,,0.00,120.4,WeatherDisplay:10.37,2013-04-12 16:01:00,
2013-04-12 11:07:00,37.9,33.5,29.85,WNW,290,2.1,4.0,84,0.00,-DZ,,0.00,187.6,WeatherDisplay:10.37,2013-04-12 16:07:00,
2013-04-12 11:12:00,37.9,33.2,29.85,West,261,2.0,12.0,83,0.00,-DZ,-DZ,0.00,145.6,WeatherDisplay:10.37,2013-04-12 16:12:00,
2013-04-12 11:17:00,37.7,33.0,29.86,West,266,9.0,20.0,83,0.00,-DZ,-DZ,0.00,120.4,WeatherDisplay:10.37,2013-04-12 16:17:00,
2013-04-12 11:22:00,37.5,33.1,29.86,SW,236,3.2,11.5,84,0.00,-DZ,,0.00,162.4,WeatherDisplay:10.37,2013-04-12 16:22:00,
2013-04-12 11:27:00,37.4,33.0,29.86,West,261,2.0,20.0,84,0.00,-DZ,-DZ,0.00,126.0,WeatherDisplay:10.37,2013-04-12 16:27:00,
2013-04-12 11:32:00,37.5,33.1,29.86,West,263,7.0,15.0,84,0.00,-DZ,-DZ,0.00,113.4,WeatherDisplay:10.37,2013-04-12 16:32:00,
2013-04-12 11:37:00,37.3,32.6,29.86,WSW,256,8.0,20.0,83,0.00,-DZ,-DZ,0.00,184.8,WeatherDisplay:10.37,2013-04-12 16:37:00,
2013-04-12 11:42:00,37.2,32.8,29.86,West,265,6.0,20.0,84,0.00,-DZ,-DZ,0.00,177.8,WeatherDisplay:10.37,2013-04-12 16:42:00,
2013-04-12 11:47:00,37.2,32.8,29.86,West,270,3.0,20.0,84,0.00,-DZ,-DZ,0.00,207.2,WeatherDisplay:10.37,2013-04-12 16:47:00,
2013-04-12 11:52:00,37.3,32.9,29.86,West,267,9.0,20.0,84,0.00,-DZ,-DZ,0.00,179.2,WeatherDisplay:10.37,2013-04-12 16:52:00,
2013-04-12 11:57:00,37.3,32.9,29.87,West,266,7.0,20.0,84,0.00,-DZ,-DZ,0.00,175.0,WeatherDisplay:10.37,2013-04-12 16:57:00,
2013-04-12 12:02:00,37.4,33.0,29.87,West,268,6.0,14.0,84,0.00,-DZ,-DZ,0.00,259.0,WeatherDisplay:10.37,2013-04-12 17:02:00,
2013-04-12 12:07:00,37.4,33.0,29.87,West,260,5.4,18.4,84,0.00,-DZ,,0.00,155.4,WeatherDisplay:10.37,2013-04-12 17:07:00,
2013-04-12 12:12:00,37.4,33.0,29.87,SW,222,3.2,9.2,84,0.00,-DZ,,0.00,198.8,WeatherDisplay:10.37,2013-04-12 17:12:00,
2013-04-12 12:17:00,37.3,32.6,29.87,WSW,253,11.2,21.9,83,0.00,-DZ,,0.00,224.0,WeatherDisplay:10.37,2013-04-12 17:17:00,
2013-04-12 12:23:00,37.2,32.5,29.88,West,261,7.8,18.4,83,0.00,-DZ,,0.00,162.4,WeatherDisplay:10.37,2013-04-12 17:23:00,
2013-04-12 12:28:00,37.2,32.8,29.88,West,272,6.2,11.5,84,0.00,-DZ,,0.00,175.0,WeatherDisplay:10.37,2013-04-12 17:28:00,
2013-04-12 12:33:00,37.2,32.8,29.88,WNW,289,10.4,16.0,84,0.00,-DZ,,0.00,194.6,WeatherDisplay:10.37,2013-04-12 17:33:00,
2013-04-12 12:38:00,37.1,33.0,29.88,WNW,287,6.8,11.5,85,0.00,-DZ,,0.00,182.0,WeatherDisplay:10.37,2013-04-12 17:38:00,
2013-04-12 12:44:00,37.0,32.6,29.88,SW,228,3.3,11.5,84,0.00,-DZ,,0.00,194.6,WeatherDisplay:10.37,2013-04-12 17:44:00,
2013-04-12 12:49:00,37.0,32.3,29.88,SW,216,3.3,6.9,83,0.00,-DZ,,0.00,364.0,WeatherDisplay:10.37,2013-04-12 17:49:00,
2013-04-12 12:56:00,37.7,33.3,29.88,West,278,11.2,16.1,84,0.00,-DZ,,0.00,369.6,WeatherDisplay:10.37,2013-04-12 17:56:00,
2013-04-12 13:02:00,37.9,32.9,29.88,West,268,3.0,17.0,82,0.00,-DZ,-DZ,0.00,411.6,WeatherDisplay:10.37,2013-04-12 18:02:00,
2013-04-12 13:07:00,38.2,33.2,29.88,West,274,9.0,22.0,82,0.00,-DZ,-DZ,0.00,477.4,WeatherDisplay:10.37,2013-04-12 18:07:00,
2013-04-12 13:12:00,38.4,32.8,29.88,West,263,10.2,19.0,80,0.00,-DZ,,0.00,448.0,WeatherDisplay:10.37,2013-04-12 18:12:00,
2013-04-12 13:17:00,38.1,32.8,29.88,West,263,5.8,10.4,81,0.00,-DZ,,0.00,490.0,WeatherDisplay:10.37,2013-04-12 18:17:00,
2013-04-12 13:24:00,38.1,32.8,29.88,West,280,10.2,16.0,81,0.00,-DZ,,0.00,371.0,WeatherDisplay:10.37,2013-04-12 18:24:00,
2013-04-12 13:29:00,38.4,33.1,29.88,West,278,3.8,11.5,81,0.00,-DZ,,0.00,516.6,WeatherDisplay:10.37,2013-04-12 18:29:00,
2013-04-12 13:42:00,35.2,28.1,30.00,North,351,1.0,3.0,75,0.00,CLR,CLR,0.00,0.0,WeatherDisplay:10.37,2013-04-12 18:42:00,
2013-04-12 13:47:00,35.1,28.0,30.01,West,275,1.0,6.0,75,0.00,CLR,CLR,0.00,0.0,WeatherDisplay:10.37,2013-04-12 18:47:00,
2013-04-12 13:52:00,35.1,28.0,30.01,WSW,247,2.0,7.0,75,0.00,-DZ,-DZ,0.00,0.0,WeatherDisplay:10.37,2013-04-12 18:52:00,
2013-04-12 14:26:00,39.6,33.0,29.90,WNW,288,4.3,22.0,77,0.00,-DZ,,0.00,371.0,WeatherDisplay:10.37,2013-04-12 19:26:00,
2013-04-12 14:27:00,39.6,33.0,29.90,WSW,253,5.0,11.5,77,0.00,-DZ,,0.00,341.6,WeatherDisplay:10.37,2013-04-12 19:27:00,
2013-04-12 14:29:00,39.7,33.1,29.90,NW,306,4.7,9.2,77,0.00,-DZ,,0.00,334.6,WeatherDisplay:10.37,2013-04-12 19:29:00,
2013-04-12 14:34:00,39.9,32.9,29.90,NW,312,4.7,12.0,76,0.00,-DZ,,0.00,396.2,WeatherDisplay:10.37,2013-04-12 19:34:00,
2013-04-12 14:40:00,40.0,33.0,29.90,West,265,4.2,12.7,76,0.00,-DZ,,0.00,403.2,WeatherDisplay:10.37,2013-04-12 19:40:00,
2013-04-12 14:45:00,40.5,32.9,29.90,NW,306,9.2,16.1,74,0.00,-DZ,,0.00,740.6,WeatherDisplay:10.37,2013-04-12 19:45:00,
2013-04-12 14:50:00,40.9,32.9,29.90,SW,233,8.3,15.0,73,0.00,-DZ,,0.00,263.2,WeatherDisplay:10.37,2013-04-12 19:50:00,
2013-04-12 14:55:00,40.7,33.1,29.90,SSW,213,4.4,9.2,74,0.00,-DZ,,0.00,259.0,WeatherDisplay:10.37,2013-04-12 19:55:00,
2013-04-12 15:01:00,40.7,33.1,29.90,SW,227,3.8,10.4,74,0.00,-DZ,,0.00,280.0,WeatherDisplay:10.37,2013-04-12 20:01:00,
2013-04-12 15:06:00,40.6,33.0,29.90,WNW,299,2.6,4.0,74,0.00,-DZ,,0.00,331.8,WeatherDisplay:10.37,2013-04-12 20:06:00,
2013-04-12 15:11:00,40.7,32.7,29.90,WSW,240,3.0,10.4,73,0.00,-DZ,,0.00,324.8,WeatherDisplay:10.37,2013-04-12 20:11:00,
2013-04-12 15:16:00,40.8,32.5,29.90,West,275,4.9,14.0,72,0.00,-DZ,,0.00,260.4,WeatherDisplay:10.37,2013-04-12 20:16:00,
2013-04-12 15:21:00,40.7,32.0,29.91,WSW,251,6.1,15.0,71,0.00,-DZ,,0.00,184.8,WeatherDisplay:10.37,2013-04-12 20:21:00,
2013-04-12 15:26:00,40.6,32.3,29.91,WSW,256,2.2,4.0,72,0.00,-DZ,,0.00,214.2,WeatherDisplay:10.37,2013-04-12 20:26:00,
2013-04-12 15:32:00,40.6,32.3,29.91,WSW,253,5.0,22.0,72,0.00,-DZ,-DZ,0.00,168.0,WeatherDisplay:10.37,2013-04-12 20:32:00,
2013-04-12 15:37:00,40.6,32.3,29.91,WSW,251,5.9,13.0,72,0.00,-DZ,,0.00,268.8,WeatherDisplay:10.37,2013-04-12 20:37:00,
2013-04-12 15:42:00,40.5,32.2,29.91,West,263,5.0,22.0,72,0.00,-DZ,-DZ,0.00,292.6,WeatherDisplay:10.37,2013-04-12 20:42:00,
2013-04-12 15:47:00,40.7,32.0,29.91,WNW,283,4.4,11.5,71,0.00,-DZ,,0.00,340.2,WeatherDisplay:10.37,2013-04-12 20:47:00,
2013-04-12 15:52:00,41.1,33.1,29.91,WSW,252,2.4,3.5,73,0.00,-DZ,,0.00,168.0,WeatherDisplay:10.37,2013-04-12 20:52:00,
2013-04-12 15:57:00,41.2,32.5,29.92,WSW,258,2.2,3.5,71,0.00,-DZ,,0.00,208.6,WeatherDisplay:10.37,2013-04-12 20:57:00,
2013-04-12 16:03:00,41.1,32.4,29.91,West,269,4.4,6.9,71,0.00,-DZ,,0.00,214.2,WeatherDisplay:10.37,2013-04-12 21:03:00,
2013-04-12 16:08:00,41.0,32.7,29.92,West,267,4.2,8.1,72,0.00,-DZ,,0.00,187.6,WeatherDisplay:10.37,2013-04-12 21:08:00,
2013-04-12 16:13:00,40.9,32.6,29.92,West,280,7.8,11.5,72,0.00,-DZ,,0.00,204.4,WeatherDisplay:10.37,2013-04-12 21:13:00,
2013-04-12 16:18:00,40.7,32.4,29.92,West,277,2.5,6.9,72,0.00,-DZ,,0.00,179.2,WeatherDisplay:10.37,2013-04-12 21:18:00,
2013-04-12 16:24:00,40.6,32.6,29.92,WSW,244,5.1,11.5,73,0.00,-DZ,,0.00,152.6,WeatherDisplay:10.37,2013-04-12 21:24:00,
2013-04-12 16:29:00,40.5,32.9,29.92,WSW,257,1.8,4.0,74,0.00,-DZ,,0.00,155.4,WeatherDisplay:10.37,2013-04-12 21:29:00,
2013-04-12 16:34:00,40.5,32.9,29.92,SW,233,2.4,10.4,74,0.00,-DZ,,0.00,135.8,WeatherDisplay:10.37,2013-04-12 21:34:00,
2013-04-12 16:39:00,40.4,33.1,29.93,SSW,202,2.9,5.8,75,0.00,-DZ,,0.00,100.8,WeatherDisplay:10.37,2013-04-12 21:39:00,
2013-04-12 16:45:00,40.2,32.9,29.93,South,188,2.0,5.8,75,0.00,-DZ,,0.00,91.0,WeatherDisplay:10.37,2013-04-12 21:45:00,
2013-04-12 16:50:00,39.9,32.6,29.93,West,279,4.1,10.4,75,0.00,-DZ,,0.00,74.2,WeatherDisplay:10.37,2013-04-12 21:50:00,
2013-04-12 16:55:00,39.5,32.6,29.93,WSW,254,1.2,3.5,76,0.00,-DZ,,0.00,86.8,WeatherDisplay:10.37,2013-04-12 21:55:00,
2013-04-12 17:00:00,39.4,32.8,29.93,WSW,249,2.8,4.6,77,0.00,-DZ,,0.00,88.2,WeatherDisplay:10.37,2013-04-12 22:00:00,
2013-04-12 17:06:00,39.4,32.8,29.93,SSW,211,2.0,6.0,77,0.00,-DZ,,0.00,110.6,WeatherDisplay:10.37,2013-04-12 22:06:00,
2013-04-12 17:11:00,39.4,32.8,29.93,West,267,3.9,10.0,77,0.00,-DZ,,0.00,159.6,WeatherDisplay:10.37,2013-04-12 22:11:00,
2013-04-12 17:17:00,39.5,32.6,29.93,West,263,2.1,4.0,76,0.00,-DZ,,0.00,110.6,WeatherDisplay:10.37,2013-04-12 22:17:00,
2013-04-12 17:22:00,39.6,32.7,29.93,West,262,5.0,9.0,76,0.00,-DZ,-DZ,0.00,93.8,WeatherDisplay:10.37,2013-04-12 22:22:00,
2013-04-12 17:27:00,39.7,32.7,29.93,WSW,256,1.0,22.0,76,0.00,-DZ,-DZ,0.00,103.6,WeatherDisplay:10.37,2013-04-12 22:27:00,
2013-04-12 17:32:00,39.7,32.4,29.94,WSW,256,1.0,22.0,75,0.00,-DZ,-DZ,0.00,93.8,WeatherDisplay:10.37,2013-04-12 22:32:00,
2013-04-12 17:37:00,39.8,32.5,29.94,WSW,252,1.9,3.5,75,0.00,-DZ,,0.00,88.2,WeatherDisplay:10.37,2013-04-12 22:37:00,
2013-04-12 17:42:00,39.8,32.2,29.94,WSW,252,1.8,5.0,74,0.00,-DZ,,0.00,93.8,WeatherDisplay:10.37,2013-04-12 22:42:00,
2013-04-12 17:47:00,39.8,32.5,29.94,WSW,251,0.2,2.3,75,0.00,-DZ,,0.00,54.6,WeatherDisplay:10.37,2013-04-12 22:47:00,
2013-04-12 17:53:00,39.7,32.4,29.94,SSW,206,3.7,3.7,75,0.00,-DZ,,0.00,51.8,WeatherDisplay:10.37,2013-04-12 22:53:00,
2013-04-12 17:58:00,39.5,31.9,29.94,NW,304,3.6,7.0,74,0.00,-DZ,,0.00,56.0,WeatherDisplay:10.37,2013-04-12 22:58:00,
2013-04-12 18:03:00,39.4,31.8,29.94,West,267,2.4,3.5,74,0.00,-DZ,,0.00,54.6,WeatherDisplay:10.37,2013-04-12 23:03:00,
2013-04-12 18:08:00,39.3,31.7,29.94,West,272,4.9,11.5,74,0.00,-DZ,,0.00,65.8,WeatherDisplay:10.37,2013-04-12 23:08:00,
2013-04-12 18:14:00,39.3,31.7,29.94,WSW,255,2.4,4.0,74,0.00,-DZ,,0.00,81.2,WeatherDisplay:10.37,2013-04-12 23:14:00,
2013-04-12 18:19:00,39.3,31.7,29.94,WSW,237,3.5,8.1,74,0.00,-DZ,,0.00,56.0,WeatherDisplay:10.37,2013-04-12 23:19:00,
2013-04-12 18:24:00,39.3,31.7,29.94,West,261,2.6,5.8,74,0.00,-DZ,,0.00,54.6,WeatherDisplay:10.37,2013-04-12 23:24:00,
2013-04-12 18:29:00,39.2,31.9,29.94,West,260,3.4,9.0,75,0.00,-DZ,,0.00,51.8,WeatherDisplay:10.37,2013-04-12 23:29:00,
2013-04-12 18:35:00,39.2,31.9,29.95,WNW,290,1.9,8.1,75,0.00,-DZ,,0.00,54.6,WeatherDisplay:10.37,2013-04-12 23:35:00,
2013-04-12 18:40:00,39.1,31.8,29.95,WSW,250,3.4,11.5,75,0.00,-DZ,,0.00,32.2,WeatherDisplay:10.37,2013-04-12 23:40:00,
2013-04-12 18:45:00,39.0,31.7,29.95,WSW,254,3.9,9.2,75,0.00,-DZ,,0.00,22.4,WeatherDisplay:10.37,2013-04-12 23:45:00,
2013-04-12 18:50:00,38.9,31.6,29.95,NW,309,2.3,6.0,75,0.00,-DZ,,0.00,16.8,WeatherDisplay:10.37,2013-04-12 23:50:00,
2013-04-12 18:56:00,38.8,31.6,29.95,WNW,285,2.8,10.4,75,0.00,-DZ,,0.00,25.2,WeatherDisplay:10.37,2013-04-12 23:56:00,
2013-04-12 19:01:00,38.7,31.8,29.95,West,269,2.8,7.0,76,0.00,-DZ,,0.00,35.0,WeatherDisplay:10.37,2013-04-13 00:01:00,
2013-04-12 19:06:00,38.7,32.1,29.95,West,274,1.0,3.5,77,0.00,-DZ,,0.00,42.0,WeatherDisplay:10.37,2013-04-13 00:06:00,
2013-04-12 19:12:00,38.6,32.0,29.95,West,265,1.0,22.0,77,0.00,-DZ,-DZ,0.00,36.4,WeatherDisplay:10.37,2013-04-13 00:12:00,
2013-04-12 19:17:00,38.6,31.7,29.95,WSW,239,2.4,3.5,76,0.00,-DZ,,0.00,15.4,WeatherDisplay:10.37,2013-04-13 00:17:00,
2013-04-12 19:22:00,38.5,31.3,29.95,West,269,3.4,8.1,75,0.00,-DZ,,0.00,7.0,WeatherDisplay:10.37,2013-04-13 00:22:00,
2013-04-12 19:27:00,38.4,31.5,29.95,WNW,287,3.3,9.2,76,0.00,-DZ,,0.00,9.8,WeatherDisplay:10.37,2013-04-13 00:27:00,
2013-04-12 19:32:00,38.3,31.4,29.96,WSW,244,4.6,11.5,76,0.00,-DZ,,0.00,0.0,WeatherDisplay:10.37,2013-04-13 00:32:00,
2013-04-12 19:37:00,38.2,31.3,29.96,WSW,257,2.9,8.1,76,0.00,-DZ,,0.00,0.0,WeatherDisplay:10.37,2013-04-13 00:37:00,
2013-04-12 19:42:00,38.1,31.2,29.96,West,275,6.1,8.1,76,0.00,-DZ,,0.00,0.0,WeatherDisplay:10.37,2013-04-13 00:42:00,
2013-04-12 19:48:00,38.0,31.1,29.95,NW,314,5.9,9.2,76,0.00,-DZ,,0.00,0.0,WeatherDisplay:10.37,2013-04-13 00:48:00,
2013-04-12 19:53:00,37.9,30.7,29.96,West,277,6.8,15.0,75,0.00,-DZ,,0.00,0.0,WeatherDisplay:10.37,2013-04-13 00:53:00,
2013-04-12 19:58:00,37.8,30.6,29.96,West,261,6.9,10.4,75,0.00,-DZ,,0.00,0.0,WeatherDisplay:10.37,2013-04-13 00:58:00,
2013-04-12 20:04:00,37.7,30.5,29.96,SW,226,5.5,9.0,75,0.00,-DZ,,0.00,0.0,WeatherDisplay:10.37,2013-04-13 01:04:00,
2013-04-12 20:09:00,37.6,30.1,29.97,West,273,3.1,6.9,74,0.00,-DZ,,0.00,0.0,WeatherDisplay:10.37,2013-04-13 01:09:00,
2013-04-12 20:14:00,37.5,29.6,29.97,WSW,256,1.5,3.5,73,0.00,-DZ,,0.00,0.0,WeatherDisplay:10.37,2013-04-13 01:14:00,
2013-04-12 20:19:00,37.5,29.6,29.97,SSW,200,3.2,8.1,73,0.00,-DZ,,0.00,0.0,WeatherDisplay:10.37,2013-04-13 01:19:00,
2013-04-12 20:25:00,37.3,29.1,29.97,WNW,300,5.0,9.2,72,0.00,-DZ,,0.00,0.0,WeatherDisplay:10.37,2013-04-13 01:25:00,
2013-04-12 20:30:00,37.3,29.4,29.97,WSW,242,7.8,9.2,73,0.00,-DZ,,0.00,0.0,WeatherDisplay:10.37,2013-04-13 01:30:00,
2013-04-12 20:35:00,37.2,29.7,29.97,West,277,3.5,9.0,74,0.00,-DZ,,0.00,0.0,WeatherDisplay:10.37,2013-04-13 01:35:00,
2013-04-12 20:40:00,37.1,29.9,29.97,WSW,253,1.9,4.0,75,0.00,-DZ,,0.00,0.0,WeatherDisplay:10.37,2013-04-13 01:40:00,
2013-04-12 20:46:00,37.0,29.5,29.98,WSW,242,6.1,22.0,74,0.00,-DZ,,0.00,0.0,WeatherDisplay:10.37,2013-04-13 01:46:00,
2013-04-12 20:51:00,36.8,29.6,29.98,WSW,257,7.3,12.7,75,0.00,-DZ,,0.00,0.0,WeatherDisplay:10.37,2013-04-13 01:51:00,
2013-04-12 20:56:00,36.7,29.2,29.98,West,267,3.5,6.9,74,0.00,-DZ,,0.00,0.0,WeatherDisplay:10.37,2013-04-13 01:56:00,
2013-04-12 21:01:00,36.6,29.1,29.98,WSW,257,5.2,11.5,74,0.00,-DZ,,0.00,0.0,WeatherDisplay:10.37,2013-04-13 02:01:00,
2013-04-12 21:06:00,36.5,29.3,29.98,West,276,3.2,6.0,75,0.00,-DZ,,0.00,0.0,WeatherDisplay:10.37,2013-04-13 02:06:00,
2013-04-12 21:11:00,36.4,28.9,29.98,West,259,3.3,4.0,74,0.00,-DZ,,0.00,0.0,WeatherDisplay:10.37,2013-04-13 02:11:00,
2013-04-12 21:17:00,36.2,28.7,29.98,West,272,5.0,22.0,74,0.00,-DZ,-DZ,0.00,0.0,WeatherDisplay:10.37,2013-04-13 02:17:00,
2013-04-12 21:22:00,36.1,28.7,29.98,West,274,8.0,22.0,74,0.00,-DZ,-DZ,0.00,0.0,WeatherDisplay:10.37,2013-04-13 02:22:00,
2013-04-12 21:27:00,36.1,28.6,29.98,West,266,2.0,22.0,74,0.00,-DZ,-DZ,0.00,0.0,WeatherDisplay:10.37,2013-04-13 02:27:00,
2013-04-12 21:32:00,36.0,28.5,29.99,West,266,3.0,22.0,74,0.00,-DZ,-DZ,0.00,0.0,WeatherDisplay:10.37,2013-04-13 02:32:00,
2013-04-12 21:37:00,36.0,28.5,29.99,West,275,2.0,6.0,74,0.00,-DZ,-DZ,0.00,0.0,WeatherDisplay:10.37,2013-04-13 02:37:00,
2013-04-12 21:42:00,36.0,28.8,30.00,West,261,2.6,6.9,75,0.00,-DZ,,0.00,0.0,WeatherDisplay:10.37,2013-04-13 02:42:00,
2013-04-12 21:47:00,35.9,28.7,30.00,West,262,3.0,6.9,75,0.00,-DZ,,0.00,0.0,WeatherDisplay:10.37,2013-04-13 02:47:00,
2013-04-12 21:52:00,35.9,28.7,30.00,SW,233,1.8,8.1,75,0.00,-DZ,,0.00,0.0,WeatherDisplay:10.37,2013-04-13 02:52:00,
2013-04-12 21:58:00,35.9,28.7,30.00,West,270,0.7,3.5,75,0.00,-DZ,,0.00,0.0,WeatherDisplay:10.37,2013-04-13 02:58:00,
2013-04-12 22:03:00,35.9,28.7,30.00,WNW,284,3.9,9.2,75,0.00,-DZ,,0.00,0.0,WeatherDisplay:10.37,2013-04-13 03:03:00,
2013-04-12 22:09:00,35.9,29.1,30.00,West,270,10.0,10.4,76,0.00,-DZ,,0.00,0.0,WeatherDisplay:10.37,2013-04-13 03:09:00,
2013-04-12 22:15:00,35.8,29.3,30.00,WSW,253,3.1,11.5,77,0.00,-DZ,,0.00,0.0,WeatherDisplay:10.37,2013-04-13 03:15:00,
2013-04-12 22:20:00,35.8,29.3,30.00,WNW,290,11.0,11.5,77,0.00,-DZ,,0.00,0.0,WeatherDisplay:10.37,2013-04-13 03:20:00,
2013-04-12 22:25:00,35.5,29.0,30.00,West,279,2.9,11.5,77,0.00,-DZ,,0.00,0.0,WeatherDisplay:10.37,2013-04-13 03:25:00,
2013-04-12 22:30:00,35.4,28.6,30.00,WNW,282,6.3,22.0,76,0.00,-DZ,,0.00,0.0,WeatherDisplay:10.37,2013-04-13 03:30:00,
2013-04-12 22:36:00,35.3,28.5,30.01,WNW,288,7.6,13.8,76,0.00,-DZ,,0.00,0.0,WeatherDisplay:10.37,2013-04-13 03:36:00,
2013-04-12 22:41:00,35.3,28.5,30.01,West,275,4.1,11.5,76,0.00,-DZ,,0.00,0.0,WeatherDisplay:10.37,2013-04-13 03:41:00,
2013-04-12 22:46:00,35.2,28.4,30.01,West,281,2.0,9.2,76,0.00,-DZ,,0.00,0.0,WeatherDisplay:10.37,2013-04-13 03:46:00,
2013-04-12 22:51:00,35.2,28.1,30.00,West,276,2.2,9.2,75,0.00,-DZ,,0.00,0.0,WeatherDisplay:10.37,2013-04-13 03:51:00,
2013-04-12 22:57:00,35.2,28.1,30.00,West,270,2.0,22.0,75,0.00,-DZ,-DZ,0.00,0.0,WeatherDisplay:10.37,2013-04-13 03:57:00,
2013-04-12 23:00:00,35.2,27.4,30.00,WSW,238,1.6,9.2,73,0.00,-DZ,,0.00,0.0,WeatherDisplay:10.37,2013-04-13 04:00:00,
2013-04-12 23:01:00,35.2,27.4,30.00,WNW,288,2.4,4.0,73,0.00,-DZ,,0.00,0.0,WeatherDisplay:10.37,2013-04-13 04:01:00,
2013-04-12 23:07:00,35.2,27.1,30.01,West,261,2.1,4.6,72,0.00,-DZ,,0.00,0.0,WeatherDisplay:10.37,2013-04-13 04:07:00,
2013-04-12 23:12:00,35.3,27.2,30.00,WSW,244,1.0,3.5,72,0.00,-DZ,,0.00,0.0,WeatherDisplay:10.37,2013-04-13 04:12:00,
2013-04-12 23:17:00,35.2,27.1,30.00,West,266,1.0,4.0,72,0.00,-DZ,-DZ,0.00,0.0,WeatherDisplay:10.37,2013-04-13 04:17:00,
2013-04-12 23:22:00,35.2,27.1,30.00,West,268,1.0,22.0,72,0.00,-DZ,-DZ,0.00,0.0,WeatherDisplay:10.37,2013-04-13 04:22:00,
2013-04-12 23:27:00,35.2,27.4,30.00,West,277,4.3,9.2,73,0.00,-DZ,,0.00,0.0,WeatherDisplay:10.37,2013-04-13 04:27:00,
2013-04-12 23:32:00,35.2,27.4,30.00,WSW,246,1.9,6.9,73,0.00,-DZ,,0.00,0.0,WeatherDisplay:10.37,2013-04-13 04:32:00,
2013-04-12 23:37:00,35.2,27.7,30.00,WSW,244,0.1,2.3,74,0.00,-DZ,,0.00,0.0,WeatherDisplay:10.37,2013-04-13 04:37:00,
2013-04-12 23:43:00,35.1,27.6,30.00,West,273,1.2,3.5,74,0.00,-DZ,,0.00,0.0,WeatherDisplay:10.37,2013-04-13 04:43:00,
2013-04-12 23:48:00,35.1,28.0,30.00,SSW,205,0.9,22.0,75,0.00,-DZ,,0.00,0.0,WeatherDisplay:10.37,2013-04-13 04:48:00,
2013-04-12 23:53:00,35.1,28.3,30.01,WSW,249,2.8,3.5,76,0.00,-DZ,,0.00,0.0,WeatherDisplay:10.37,2013-04-13 04:53:00,
2013-04-12 23:58:00,35.1,28.3,30.01,WSW,257,1.5,3.5,76,0.00,-DZ,,0.00,0.0,WeatherDisplay:10.37,2013-04-13 04:58:00,